PACCTY Weather Reports


time (UTC)temp
C
wind
direction
speed
KPH
gust
KPH
rain 1hr
cm
rain 24hr
cm
rain mn
cm
humidity
%
barometer
mb
20260507040520 12 0 0.0 0.0 0.00 0.18 0.18 90 1020.1
20260507040020 12 0 0.0 0.0 0.00 0.18 0.18 90 1020.1
20260507033019 12 0 0.0 0.0 0.00 0.18 0.18 90 1019.9
20260507032520 12 0 0.0 0.0 0.00 0.18 0.18 89 1019.9
20260507032021 12 0 0.0 1.6 0.00 0.18 0.18 89 1019.9
20260507031021 12 323 1.6 1.6 0.00 0.18 0.18 89 1019.8
20260507030521 12 0 0.0 0.0 0.00 0.18 0.18 89 1019.7
20260507030020 12 0 0.0 0.0 0.00 0.18 0.18 89 1019.8
20260507025520 12 0 0.0 0.0 0.00 0.18 0.18 90 1019.8
20260507025022 12 0 0.0 0.0 0.00 0.18 0.18 90 1019.7
20260507023520 13 0 0.0 0.0 0.00 0.18 0.18 89 1019.7
20260507023020 13 0 0.0 0.0 0.00 0.18 0.18 89 1019.7
20260507022520 13 0 0.0 0.0 0.00 0.18 0.18 89 1019.6
20260507022020 13 0 0.0 0.0 0.00 0.18 0.18 89 1019.7
20260507021020 13 0 0.0 0.0 0.00 0.18 0.18 89 1019.7
20260507020520 13 0 0.0 0.0 0.00 0.18 0.18 89 1019.7
20260507020024 13 0 0.0 0.0 0.00 0.18 0.18 89 1019.7
20260507015520 13 0 0.0 0.0 0.00 0.18 0.18 88 1019.7
20260507015020 13 0 0.0 0.0 0.00 0.18 0.18 88 1019.8
20260507014021 13 0 0.0 0.0 0.00 0.18 0.18 88 1019.8
20260507013519 13 0 0.0 0.0 0.00 0.18 0.18 88 1019.8
20260507013019 13 0 0.0 0.0 0.00 0.18 0.18 88 1019.9
20260507012520 13 0 0.0 0.0 0.00 0.18 0.18 88 1019.9
20260507012020 13 0 0.0 0.0 0.00 0.18 0.18 88 1019.9
20260507011020 13 0 0.0 0.0 0.00 0.18 0.18 88 1019.9
20260507010522 13 0 0.0 0.0 0.00 0.18 0.18 87 1020.0
20260507010021 13 0 0.0 0.0 0.00 0.18 0.18 87 1020.0
20260507005520 13 0 0.0 0.0 0.00 0.18 0.18 87 1019.9
20260507005020 13 0 0.0 0.0 0.00 0.18 0.18 87 1020.1
20260507004020 13 0 0.0 0.0 0.00 0.18 0.18 86 1020.0
20260507003520 13 0 0.0 0.0 0.00 0.18 0.18 86 1020.0
20260507001019 13 222 0.0 6.4 0.00 0.18 0.18 85 1020.2
20260507000522 13 224 0.0 4.8 0.00 0.18 0.18 85 1020.1
20260507000019 13 224 0.0 4.8 0.00 0.18 0.18 85 1020.1
20260506235519 13 229 1.6 4.8 0.00 0.18 0.18 86 1020.2
20260506235020 13 0 0.0 0.0 0.00 0.18 0.18 85 1020.2
20260506234520 13 228 0.0 9.7 0.00 0.18 0.18 86 1020.2
20260506234023 13 196 0.0 9.7 0.00 0.18 0.18 85 1020.3
20260506233520 13 222 0.0 9.7 0.00 0.18 0.18 85 1020.3
20260506233020 13 0 0.0 0.0 0.00 0.18 0.18 85 1020.3
20260506232520 13 0 0.0 0.0 0.00 0.18 0.18 85 1020.3
20260506231520 13 231 0.0 9.7 0.00 0.18 0.18 84 1020.4
20260506231019 14 219 1.6 9.7 0.00 0.18 0.18 84 1020.4
20260506230520 14 219 1.6 9.7 0.00 0.18 0.18 83 1020.5
20260506230019 14 236 3.2 6.4 0.00 0.18 0.18 83 1020.4
20260506225520 14 236 1.6 6.4 0.00 0.18 0.18 82 1020.5
20260506225020 14 224 1.6 6.4 0.00 0.18 0.18 82 1020.6
20260506224520 15 224 1.6 6.4 0.00 0.18 0.18 82 1020.6
20260506224019 15 203 0.0 4.8 0.00 0.18 0.18 82 1020.6
20260506223520 15 203 0.0 4.8 0.18 0.18 0.18 81 1020.7
20260506223020 15 221 3.2 4.8 0.18 0.18 0.18 81 1020.8
20260506222520 15 226 1.6 6.4 0.18 0.18 0.18 82 1020.8
20260506222024 15 219 1.6 6.4 0.18 0.00 0.00 81 1020.8
20260506222020 15 219 1.6 6.4 0.18 0.18 0.18 81 1020.8
20260506221519 15 285 1.6 6.4 0.18 0.18 0.18 82 1020.8
20260506220019 15 240 0.0 8.0 0.18 0.18 0.18 82 1020.7
20260506215520 14 221 4.8 6.4 0.18 0.18 0.18 81 1020.7
20260506215020 15 221 3.2 6.4 0.18 0.18 0.18 81 1020.6
20260506214519 15 261 0.0 3.2 0.18 0.18 0.18 82 1020.6
20260506213020 15 256 1.6 3.2 0.00 0.00 0.00 81 1020.6
20260506212020 15 267 0.0 4.8 0.00 0.00 0.00 81 1020.6
20260506211520 15 232 1.6 4.8 0.00 0.00 0.00 80 1020.5
20260506210520 15 235 1.6 8.0 0.00 0.00 0.00 81 1020.5
20260506205520 15 219 0.0 8.0 0.00 0.00 0.00 81 1020.5
20260506205020 14 225 0.0 6.4 0.00 0.00 0.00 80 1020.5
20260506204020 14 257 0.0 3.2 0.00 0.00 0.00 81 1020.5
20260506203520 14 226 1.6 3.2 0.00 0.00 0.00 82 1020.4
20260506203019 14 261 0.0 3.2 0.00 0.00 0.00 81 1020.4
20260506202520 14 261 0.0 3.2 0.00 0.00 0.00 81 1020.3
20260506200020 14 229 0.0 4.8 0.00 0.00 0.00 81 1020.4
20260506194519 14 233 0.0 3.2 0.00 0.00 0.00 81 1020.4
20260506194019 14 222 0.0 3.2 0.00 0.00 0.00 81 1020.4
20260506193022 14 233 0.0 8.0 0.00 0.00 0.00 81 1020.4
20260506192519 14 252 1.6 8.0 0.00 0.00 0.00 81 1020.3
20260506192019 14 0 0.0 0.0 0.00 0.00 0.00 81 1020.3
20260506191521 14 0 0.0 0.0 0.00 0.00 0.00 82 1020.2
20260506191021 14 0 0.0 0.0 0.00 0.00 0.00 81 1020.2
20260506190520 14 0 0.0 0.0 0.00 0.00 0.00 81 1020.3
20260506190019 14 0 0.0 0.0 0.00 0.00 0.00 80 1020.2
20260506185519 14 0 0.0 0.0 0.00 0.00 0.00 80 1020.3
20260506185022 14 0 0.0 0.0 0.00 0.00 0.00 81 1020.3
20260506184519 14 0 0.0 0.0 0.00 0.00 0.00 80 1020.3
20260506183519 14 0 0.0 0.0 0.00 0.00 0.00 80 1020.3
20260506183019 14 0 0.0 0.0 0.00 0.00 0.00 80 1020.2
20260506182519 14 0 0.0 0.0 0.00 0.00 0.00 80 1020.3
20260506182019 14 0 0.0 0.0 0.00 0.00 0.00 81 1020.2
20260506181519 14 0 0.0 0.0 0.00 0.00 0.00 80 1020.2
20260506180019 14 0 0.0 0.0 0.00 0.00 0.00 81 1020.1
20260506175519 14 0 0.0 0.0 0.00 0.00 0.00 82 1020.0
20260506175020 14 0 0.0 0.0 0.00 0.00 0.00 81 1019.9
20260506173019 13 0 0.0 0.0 0.00 0.00 0.00 82 1019.7
20260506172519 13 0 0.0 0.0 0.00 0.00 0.00 82 1019.6
20260506172021 13 0 0.0 0.0 0.00 0.00 0.00 82 1019.7
20260506171519 13 0 0.0 0.0 0.00 0.00 0.00 82 1019.8
20260506171020 13 0 0.0 0.0 0.00 0.00 0.00 83 1019.7
20260506165519 13 0 0.0 0.0 0.00 0.00 0.00 83 1019.6
20260506165019 13 0 0.0 0.0 0.00 0.00 0.00 84 1019.6
20260506164519 13 0 0.0 0.0 0.00 0.00 0.00 85 1019.5
20260506164020 13 0 0.0 0.0 0.00 0.00 0.00 84 1019.4
20260506163520 13 0 0.0 0.0 0.00 0.00 0.00 84 1019.4
20260506163019 13 0 0.0 0.0 0.00 0.00 0.00 84 1019.5
20260506162519 13 0 0.0 0.0 0.00 0.00 0.00 84 1019.5
20260506162019 13 0 0.0 0.0 0.00 0.00 0.00 84 1019.5
20260506161519 13 0 0.0 0.0 0.00 0.00 0.00 84 1019.5
20260506161019 13 0 0.0 0.0 0.00 0.00 0.00 85 1019.6
20260506160019 13 0 0.0 0.0 0.00 0.00 0.00 86 1019.4
20260506155519 13 0 0.0 0.0 0.00 0.00 0.00 86 1019.4
20260506155019 13 0 0.0 0.0 0.00 0.00 0.00 86 1019.3
20260506154519 13 0 0.0 0.0 0.00 0.00 0.00 86 1019.4
20260506154020 13 0 0.0 0.0 0.00 0.00 0.00 86 1019.4
20260506153019 13 0 0.0 0.0 0.00 0.00 0.00 87 1019.2
20260506152519 13 0 0.0 0.0 0.00 0.00 0.00 87 1019.2
20260506152019 13 0 0.0 0.0 0.00 0.00 0.00 87 1019.2
20260506151519 12 0 0.0 0.0 0.00 0.00 0.00 88 1019.1
20260506150520 12 0 0.0 0.0 0.00 0.00 0.00 88 1019.0
20260506145519 12 0 0.0 0.0 0.00 0.00 0.00 88 1018.9
20260506144519 12 0 0.0 0.0 0.00 0.00 0.00 89 1018.6
20260506144019 12 0 0.0 0.0 0.00 0.00 0.00 89 1018.7
20260506143019 12 0 0.0 0.0 0.00 0.00 0.00 89 1019.0
20260506142519 12 0 0.0 0.0 0.00 0.00 0.00 89 1019.0
20260506141519 12 0 0.0 0.0 0.00 0.00 0.00 88 1019.2
20260506141019 12 0 0.0 0.0 0.00 0.00 0.00 89 1019.1
20260506140019 12 0 0.0 0.0 0.00 0.00 0.00 89 1019.1
20260506135020 12 0 0.0 0.0 0.00 0.00 0.00 89 1019.0
20260506134519 12 0 0.0 0.0 0.00 0.00 0.00 89 1019.1
20260506133020 12 0 0.0 0.0 0.00 0.00 0.00 88 1018.7
20260506132519 12 0 0.0 0.0 0.00 0.00 0.00 88 1018.7
20260506132019 12 0 0.0 0.0 0.00 0.00 0.00 88 1018.7
20260506131519 12 0 0.0 0.0 0.00 0.00 0.00 88 1018.7
20260506131019 12 0 0.0 0.0 0.00 0.00 0.00 88 1018.6
20260506130521 12 0 0.0 0.0 0.00 0.00 0.00 88 1018.7
20260506125519 12 0 0.0 0.0 0.00 0.00 0.00 88 1018.6
20260506125019 12 0 0.0 0.0 0.00 0.00 0.00 88 1018.5
20260506124519 12 0 0.0 0.0 0.00 0.00 0.00 88 1018.4
20260506124019 12 0 0.0 0.0 0.00 0.00 0.00 88 1018.3
20260506122019 12 0 0.0 0.0 0.00 0.00 0.00 88 1018.2
20260506121519 12 0 0.0 0.0 0.00 0.00 0.00 88 1018.2
20260506120019 12 0 0.0 0.0 0.00 0.00 0.00 88 1018.1
20260506115519 12 0 0.0 0.0 0.00 0.00 0.00 88 1018.1
20260506115019 12 0 0.0 0.0 0.00 0.00 0.00 88 1018.1
20260506114519 12 0 0.0 0.0 0.00 0.00 0.00 87 1018.0
20260506114020 12 0 0.0 0.0 0.00 0.00 0.00 87 1017.9
20260506113519 12 0 0.0 0.0 0.00 0.00 0.00 87 1017.9
20260506112519 12 0 0.0 0.0 0.00 0.00 0.00 88 1017.9
20260506112021 12 0 0.0 0.0 0.00 0.00 0.00 88 1017.9
20260506111519 12 0 0.0 0.0 0.00 0.00 0.00 87 1018.0
20260506111019 12 0 0.0 0.0 0.00 0.00 0.00 88 1017.9
20260506105519 12 0 0.0 0.0 0.00 0.00 0.00 88 1018.0
20260506105019 12 0 0.0 0.0 0.00 0.00 0.00 88 1017.9
20260506104519 12 0 0.0 0.0 0.00 0.00 0.00 88 1017.8
20260506104019 12 0 0.0 0.0 0.00 0.00 0.00 88 1017.8
20260506103020 12 0 0.0 0.0 0.00 0.00 0.00 88 1017.7
20260506102519 12 0 0.0 0.0 0.00 0.00 0.00 88 1017.7
20260506102019 12 0 0.0 0.0 0.00 0.00 0.00 88 1017.6
20260506101639 12 0 0.0 0.0 0.00 0.00 0.00 88 1017.5
20260506101522 12 0 0.0 0.0 0.00 0.00 0.00 88 1017.5
20260506101019 12 0 0.0 0.0 0.00 0.00 0.00 88 1017.5
20260506100519 12 0 0.0 0.0 0.00 0.00 0.00 88 1017.5
20260506095519 12 0 0.0 0.0 0.00 0.00 0.00 88 1017.4
20260506094519 12 0 0.0 0.0 0.00 0.00 0.00 88 1017.4
20260506094019 12 0 0.0 0.0 0.00 0.00 0.00 88 1017.3
20260506092519 12 0 0.0 0.0 0.00 0.00 0.00 88 1017.1
20260506092019 12 0 0.0 0.0 0.00 0.00 0.00 88 1017.1
20260506091519 12 0 0.0 0.0 0.00 0.00 0.00 88 1017.1
20260506091019 12 0 0.0 0.0 0.00 0.00 0.00 89 1017.0
20260506090519 12 0 0.0 0.0 0.00 0.00 0.00 88 1017.0
20260506085519 12 0 0.0 0.0 0.00 0.00 0.00 88 1016.9
20260506085020 12 0 0.0 0.0 0.00 0.00 0.00 88 1016.9
20260506084019 12 0 0.0 0.0 0.00 0.00 0.00 88 1016.9
20260506083519 12 0 0.0 0.0 0.00 0.00 0.00 88 1016.9
20260506083020 12 0 0.0 0.0 0.00 0.00 0.00 88 1016.9
20260506082519 12 0 0.0 0.0 0.00 0.00 0.00 88 1016.8
20260506081519 12 0 0.0 0.0 0.00 0.00 0.00 88 1016.7
20260506073519 13 0 0.0 0.0 0.00 0.00 0.00 88 1016.3
20260506073019 12 0 0.0 0.0 0.00 0.00 0.00 88 1016.2
20260506072519 13 0 0.0 0.0 0.00 0.00 0.00 88 1016.2
20260506072019 13 0 0.0 0.0 0.00 0.00 0.00 88 1016.1
20260506071519 13 0 0.0 0.0 0.00 0.00 0.00 88 1016.0
20260506071019 13 0 0.0 0.0 0.00 0.00 0.00 88 1015.9
20260506070519 13 0 0.0 0.0 0.00 0.00 0.00 88 1016.0
20260506062021 13 0 0.0 0.0 0.00 0.00 0.00 87 1015.7
20260506061518 13 0 0.0 0.0 0.00 0.00 0.00 87 1015.8
20260506061020 13 0 0.0 0.0 0.00 0.00 0.00 87 1015.7
20260506060519 13 0 0.0 0.0 0.00 0.00 0.00 87 1015.6
20260506051019 13 0 0.0 0.0 0.00 0.00 0.00 87 1015.8
20260506050518 13 0 0.0 0.0 0.00 0.00 0.00 87 1015.8
20260506045019 13 0 0.0 0.0 0.00 0.00 0.00 86 1015.5
20260506044518 13 0 0.0 0.0 0.00 0.00 0.00 86 1015.5
20260506043518 13 0 0.0 0.0 0.00 0.00 0.00 86 1015.3
20260506043019 13 0 0.0 0.0 0.00 0.00 0.00 86 1015.3
20260506042020 13 0 0.0 0.0 0.00 0.00 0.00 86 1015.2
20260506041518 13 0 0.0 0.0 0.00 0.00 0.00 86 1015.2
20260506041205 13 0 0.0 0.0 0.00 0.00 0.00 86 1015.2
20260506041019 13 0 0.0 0.0 0.00 0.00 0.00 86 1015.2